SCP
2 2 1 1 1 1 1 1 1 1 1 1 1 1 1 1 1 1 1 1 1 1 0 0 0 0 0 0 0 0 0 0 0 0 0 0 1 1
1 1 1 1 1 1 1 1 1 1 1 1 1 1 1 1 1 1 1 1 1 0 0 0 0 0 0 0 0 0 0 0 0 0 0 0 1 1
0 1 1 1 1 1 1 1 1 1 1 1 1 1 1 1 1 1 1 2 1 0 0 0 0 0 0 0 0 0 0 0 0 0 0 0 0 0
0 0 0 1 1 1 1 1 1 1 1 1 1 1 1 1 1 1 1 2 1 0 0 0 0 0 0 0 0 0 0 0 0 0 0 0 0 0
0 0 0 0 0 1 1 1 1 1 1 1 1 2 2 1 1 1 1 1 1 0 0 0 0 0 0 0 0 0 0 0 0 0 0 0 0 0
0 0 0 0 0 1 1 1 1 1 1 1 1 2 2 1 1 1 1 1 1 1 0 0 0 0 0 0 0 0 0 0 0 0 0 0 0 0
0 0 0 0 0 0 0 1 1 1 1 1 1 1 1 1 1 1 1 1 1 1 1 1 1 0 0 0 0 0 0 0 0 0 0 0 0 0
0 0 0 0 0 0 0 0 1 1 1 1 1 1 1 1 1 1 1 1 1 1 1 1 1 1 1 0 0 0 0 0 0 0 0 0 0 0
0 0 1 0 0 0 0 0 1 1 1 1 1 1 1 1 1 1 2 2 2 1 1 1 1 1 1 1 0 0 0 0 0 0 0 0 0 0
1 1 1 1 1 1 1 1 1 1 1 1 1 1 1 1 1 1 2 2 2 2 1 1 1 1 1 1 1 0 0 0 0 0 0 0 0 0
1 1 1 1 1 1 1 1 1 1 1 1 1 1 1 1 1 1 1 2 2 2 2 2 1 2 2 2 1 0 0 0 0 0 0 0 0 0
1 1 1 1 0 0 0 1 1 1 1 1 1 1 1 1 1 1 1 2 1 2 2 2 2 1 2 2 1 1 0 0 0 0 0 0 0 0
1 1 1 1 0 0 0 1 1 1 2 2 1 1 1 1 1 2 2 2 2 2 2 2 2 1 1 1 1 1 1 0 0 0 0 0 0 0
1 1 1 0 0 0 0 0 1 1 2 2 1 1 1 2 2 3 3 3 2 2 2 2 2 2 1 1 1 1 1 1 0 0 0 0 0 0
1 1 0 0 0 0 0 0 1 1 2 2 1 1 1 2 2 3 3 3 2 1 1 1 2 2 2 1 1 1 1 1 1 1 1 0 0 0
1 1 1 0 0 0 0 0 1 2 2 2 2 2 2 2 2 2 3 2 1 1 1 1 1 1 1 2 2 1 1 1 1 1 1 1 0 0
1 1 1 1 1 1 1 1 1 2 2 2 2 2 2 1 1 1 2 1 1 1 1 1 1 1 1 1 1 1 1 2 2 1 1 1 1 0
1 2 2 2 1 1 1 1 2 2 2 2 2 2 1 1 1 1 1 1 1 0 0 1 1 1 1 1 1 1 1 1 2 2 1 1 1 0
1 1 2 1 1 1 1 1 2 2 2 2 2 1 1 1 0 1 1 1 1 0 0 1 1 0 0 0 1 1 1 1 1 2 1 1 1 1
0 1 1 1 1 1 1 1 1 1 1 1 1 1 1 1 0 1 1 1 1 0 0 0 1 0 0 0 0 0 0 1 1 1 1 1 1 1
1 1 1 1 1 1 1 1 1 1 1 1 1 1 1 1 0 0 1 1 1 0 0 0 0 0 1 1 0 0 0 0 1 1 1 1 1 1
1 1 1 1 1 1 1 1 1 1 1 1 1 1 1 0 0 0 1 1 0 0 0 0 1 1 1 1 0 0 0 0 0 1 1 1 1 1
1 1 1 1 1 1 1 1 1 1 1 1 1 1 1 0 0 0 1 1 1 0 0 1 1 1 1 0 0 0 0 0 0 0 0 0 0 0
Wind_Speed
5 5 5 3 4 3 3 4 4 4 3 3 3 3 3 2 2 4 4 7 7 7 6 6 6 6 5 5 6 6 6 6 6 6 6 7 7 7
3 4 5 4 3 4 4 4 4 4 4 1 2 2 1 2 3 4 4 6 8 8 8 7 7 6 6 6 6 6 6 6 7 7 7 7 7 7
5 5 6 5 4 4 4 4 4 4 4 3 2 2 3 4 2 3 4 4 5 9 9 8 7 7 7 7 7 7 7 7 7 7 8 8 8 8
5 5 6 5 6 5 4 5 4 4 5 5 3 3 4 4 3 4 4 3 3 7 9 8 8 8 7 7 8 8 8 8 8 8 8 8 8 8
5 6 6 6 6 5 6 5 5 5 5 5 5 2 3 3 3 4 4 3 4 5 9 10 9 9 8 8 8 8 8 8 8 8 8 8 8 8
5 6 6 6 6 6 6 6 5 5 5 5 4 3 3 3 4 4 3 3 3 3 3 4 7 10 10 10 9 9 9 9 9 9 8 8 8 8
5 6 6 5 4 5 5 5 5 5 5 5 4 4 3 3 3 3 3 3 3 3 3 3 4 5 7 9 10 10 10 9 9 9 9 9 8 8
5 5 6 7 6 7 6 5 5 6 6 5 5 4 4 4 3 3 3 3 3 2 3 4 4 4 4 4 6 9 10 10 9 9 9 9 9 9
5 5 5 4 6 7 8 9 9 8 7 7 7 5 5 4 4 5 4 4 5 3 4 5 4 4 4 3 7 9 9 10 9 9 9 9 9 9
6 5 5 5 5 5 6 7 8 8 9 9 7 6 6 4 5 5 5 5 6 5 5 5 4 4 4 3 7 9 9 9 9 9 9 9 9 9
6 6 6 6 4 4 7 7 6 6 7 7 6 6 5 5 5 5 5 5 5 4 4 4 4 4 4 4 4 9 9 9 9 9 9 9 9 8
6 6 6 6 5 6 7 7 7 6 6 6 6 8 8 9 10 9 7 6 5 4 3 4 4 4 4 4 3 3 5 8 9 10 10 10 9 7
5 5 4 7 7 7 7 6 5 5 6 7 7 7 7 7 8 8 7 6 6 5 3 4 4 4 5 4 3 3 3 3 5 6 9 10 10 9
5 4 3 7 7 8 7 5 4 6 6 6 6 6 6 5 5 5 6 6 6 7 5 5 5 5 5 5 4 3 3 3 4 4 4 8 9 11
4 1 1 5 6 7 8 7 7 7 6 6 6 6 5 4 4 4 5 5 6 7 5 6 6 5 5 5 5 4 4 4 4 4 4 5 5 6
6 4 6 7 7 6 5 6 7 6 6 6 5 4 3 3 4 5 5 4 5 4 5 5 6 6 6 6 5 5 4 4 4 4 4 4 5 6
3 4 5 5 6 6 5 5 6 6 6 6 5 5 4 4 4 4 4 4 5 5 4 4 4 5 6 5 5 5 5 5 4 4 4 5 6 6
4 5 5 5 5 5 5 5 5 5 5 5 5 5 5 5 5 5 5 5 5 5 4 3 3 3 4 5 5 6 5 5 5 5 5 6 6 5
6 6 5 5 5 5 5 5 5 5 4 5 6 6 5 5 5 5 5 5 5 5 4 3 4 4 5 5 4 5 5 4 4 4 5 6 6 5
7 6 5 5 5 5 5 5 5 5 5 6 6 6 5 5 5 5 5 6 5 5 5 4 4 5 5 5 4 3 6 6 5 5 5 5 4 3
6 5 5 4 4 5 5 5 5 5 5 5 5 5 5 6 6 6 6 5 6 5 5 5 4 4 4 4 5 4 3 5 5 5 5 5 5 5
5 5 4 4 4 4 4 5 5 5 5 5 5 5 5 5 6 6 6 5 6 6 6 4 3 4 5 6 6 5 5 4 5 6 6 6 5 5
5 4 4 4 4 4 4 5 5 5 5 5 5 5 5 5 5 5 5 6 6 5 5 4 3 3 5 5 5 5 6 6 5 5 5 8 9 8
Wind_Direction
219 218 233 228 229 234 239 244 257 259 240 198 220 206 234 237 153 231 238 178 190 200 205 208 210 216 218 219 221 222 223 222 226 231 234 230 229 229
230 235 238 233 225 225 232 237 248 264 273 251 223 226 255 269 181 249 250 173 196 200 205 208 210 214 217 220 221 221 222 221 225 232 237 236 235 234
226 226 233 242 235 226 224 227 233 243 252 257 249 211 224 258 243 258 251 236 200 185 193 203 211 216 219 221 221 221 220 222 226 229 233 234 234 234
225 228 231 229 231 240 234 233 232 242 249 252 256 236 229 240 244 254 253 244 242 169 185 199 211 218 223 225 224 224 223 223 226 229 231 231 232 232
228 228 230 230 232 232 235 234 232 230 239 248 250 253 250 237 239 241 241 243 250 178 186 197 207 215 221 225 225 225 225 225 227 229 229 230 231 231
229 231 233 231 231 231 230 232 237 241 233 242 246 241 240 228 234 239 233 223 246 238 209 209 201 208 216 220 222 222 223 225 227 228 227 226 224 224
230 233 235 235 244 246 250 235 230 237 238 237 241 239 236 233 237 245 250 247 237 239 243 230 213 225 216 215 216 217 220 221 223 222 223 222 221 220
229 233 229 217 215 220 240 252 254 247 250 248 245 244 242 244 242 248 255 259 260 232 251 250 238 245 242 236 200 205 214 217 219 219 220 220 221 221
230 236 243 222 219 220 211 218 228 236 243 257 257 253 249 243 244 247 247 260 269 260 250 257 248 252 253 231 193 203 210 214 218 219 219 221 223 224
229 233 241 238 230 234 229 223 227 218 219 231 250 254 258 259 247 252 259 254 256 244 230 256 256 258 260 244 191 203 210 214 216 219 220 221 224 228
227 227 236 238 211 222 234 231 232 232 223 231 248 258 266 256 250 249 245 247 257 254 229 252 264 267 261 253 207 195 203 209 215 219 221 220 223 230
220 220 221 235 203 207 229 231 231 233 231 216 223 227 233 230 219 230 241 248 259 263 228 238 258 267 264 246 239 207 212 212 216 221 222 221 216 228
229 224 207 185 199 212 230 237 242 252 244 238 234 232 227 224 221 222 233 246 256 261 241 233 254 259 262 267 261 245 233 228 216 217 215 213 209 222
245 245 189 171 199 214 225 229 226 240 243 243 242 239 235 232 232 232 234 243 254 262 260 246 253 259 264 268 268 257 245 241 234 229 218 193 206 218
251 280 197 192 202 213 223 216 218 232 239 243 247 248 244 243 244 236 236 239 248 251 243 237 245 249 255 262 267 267 262 250 235 237 235 223 219 216
233 201 194 204 217 225 209 212 228 240 247 249 253 255 250 239 239 240 240 235 244 246 233 231 240 245 252 255 257 260 258 253 242 236 240 241 234 232
232 219 215 204 209 214 217 219 225 227 234 244 245 244 241 241 243 246 248 245 248 256 245 225 225 233 247 257 256 253 253 251 245 237 236 244 239 235
226 227 225 225 224 227 228 223 224 233 239 245 246 245 242 242 244 245 243 243 250 255 258 246 227 234 243 240 247 255 254 253 247 233 239 247 250 242
221 231 232 231 230 231 235 236 235 233 238 245 247 247 244 243 246 248 247 251 254 254 251 238 236 244 257 265 242 231 249 255 255 247 245 248 254 252
231 237 238 239 242 241 241 245 242 236 233 242 245 245 246 248 248 249 248 252 254 255 254 245 241 245 256 277 283 257 226 249 253 253 254 252 252 246
234 240 245 245 245 249 250 248 250 246 246 249 246 246 246 247 249 251 250 242 250 253 254 256 253 244 259 268 267 266 243 222 253 266 264 260 256 250
239 241 243 247 249 253 251 246 243 242 241 247 251 250 252 252 249 250 256 252 247 250 252 254 237 230 237 248 261 268 267 239 216 230 252 261 267 271
237 240 240 241 243 246 248 246 249 249 243 244 245 244 249 254 258 257 253 256 258 258 257 255 248 242 247 250 260 270 270 262 250 225 224 218 222 235